Location: ????????
(55.0097°N, 38.5678°E)
Time: 01:07:33
(UTC+00:00)

NOSS 3-1 (C) - Pass Details

Date: 17 December 2025
Orbit: 618 x 1583 km, 63.4° (Epoch: 10 January)

Event Time Altitude Azimuth Distance (km) Brightness Sun altitude
Exits shadow 00:30:45 11° 149° (SSE) 3,379 6.3 -43.0°
Drops below altitude 10° 00:31:06 10° 149° (SSE) 3,498 6.4 -43.0°
Sets 00:34:19 0° 147° (SSE) 4,576 7.1 -42.5°
